HP3ICC-16 Weather Reports


time (UTC)temp
C
wind
direction
speed
KPH
gust
KPH
rain 1hr
cm
rain 24hr
cm
rain mn
cm
humidity
%
barometer
mb
20260507142510 25 230 4.8 0.0 0.00 0.00 0.00 89 1010.0
20260507142410 25 230 4.8 0.0 0.00 0.00 0.00 89 1010.0
20260507140510 26 0 1.6 0.0 0.00 0.00 0.00 89 1011.0
20260507140409 26 0 1.6 0.0 0.00 0.00 0.00 89 1011.0
20260507134509 26 0 1.6 0.0 0.00 0.00 0.00 89 1011.0
20260507134409 26 0 1.6 0.0 0.00 0.00 0.00 89 1011.0
20260507132508 23 0 1.6 0.0 0.00 0.00 0.00 94 1010.0
20260507132408 23 0 1.6 0.0 0.00 0.00 0.00 94 1010.0
20260507130508 24 0 1.6 0.0 0.00 0.00 0.00 94 1010.0
20260507130408 24 0 1.6 0.0 0.00 0.00 0.00 94 1010.0
20260507124507 23 0 1.6 0.0 0.00 0.00 0.00 94 1010.0
20260507124407 23 0 1.6 0.0 0.00 0.00 0.00 94 1010.0
20260507122507 23 70 1.6 0.0 0.00 0.00 0.00 94 1010.0
20260507122407 23 70 1.6 0.0 0.00 0.00 0.00 94 1010.0
20260507120506 24 70 3.2 0.0 0.00 0.00 0.00 94 1010.0
20260507120406 24 70 3.2 0.0 0.00 0.00 0.00 94 1010.0
20260507114506 21 70 3.2 0.0 0.00 0.00 0.00 81 1010.0
20260507114405 21 70 3.2 0.0 0.00 0.00 0.00 81 1010.0
20260507112505 22 70 3.2 0.0 0.00 0.00 0.00 81 1009.0
20260507112405 22 70 3.2 0.0 0.00 0.00 0.00 81 1009.0
20260507110504 22 3 1.6 1.6 0.00 0.00 0.00 81 1010.0
20260507110404 22 3 1.6 1.6 0.00 0.00 0.00 81 1010.0
20260507104504 23 3 3.2 1.6 0.00 0.00 0.00 81 1010.0
20260507104403 23 3 3.2 1.6 0.00 0.00 0.00 81 1010.0
20260507102503 22 347 1.6 1.6 0.00 0.00 0.00 83 1010.0
20260507102403 22 347 1.6 1.6 0.00 0.00 0.00 83 1010.0
20260507100503 22 347 1.6 1.6 0.00 0.00 0.00 83 1010.0
20260507100402 22 347 1.6 1.6 0.00 0.00 0.00 83 1010.0
20260507094502 23 347 1.6 1.6 0.00 0.00 0.00 83 1010.0
20260507094402 23 347 1.6 1.6 0.00 0.00 0.00 83 1010.0
20260507092502 23 347 3.2 3.2 0.00 0.00 0.00 83 1010.0
20260507092401 23 347 3.2 3.2 0.00 0.00 0.00 83 1010.0
20260507090501 22 344 1.6 1.6 0.00 0.00 0.00 84 1010.0
20260507090401 22 344 1.6 1.6 0.00 0.00 0.00 84 1010.0
20260507084500 22 344 1.6 1.6 0.00 0.00 0.00 84 1010.0
20260507084400 22 344 1.6 1.6 0.00 0.00 0.00 84 1010.0
20260507082500 23 344 3.2 3.2 0.00 0.00 0.00 84 1010.0
20260507082400 23 344 3.2 3.2 0.00 0.00 0.00 84 1010.0
20260507080500 22 338 1.6 1.6 0.00 0.00 0.00 85 1010.0
20260507080359 22 338 1.6 1.6 0.00 0.00 0.00 85 1010.0
20260507074459 22 338 1.6 1.6 0.00 0.00 0.00 85 1010.0
20260507074359 22 338 1.6 1.6 0.00 0.00 0.00 85 1010.0
20260507072458 23 338 1.6 1.6 0.00 0.00 0.00 85 1010.0
20260507072358 23 338 1.6 1.6 0.00 0.00 0.00 85 1010.0
20260507070458 23 338 1.6 1.6 0.00 0.00 0.00 85 1010.0
20260507070358 23 338 1.6 1.6 0.00 0.00 0.00 85 1010.0
20260507064458 24 338 1.6 1.6 0.00 0.00 0.00 85 1010.0
20260507064357 24 338 1.6 1.6 0.00 0.00 0.00 85 1010.0
20260507062457 22 350 1.6 1.6 0.00 0.00 0.00 87 1011.0
20260507062357 22 350 1.6 1.6 0.00 0.00 0.00 87 1011.0
20260507060456 23 350 1.6 1.6 0.00 0.00 0.00 87 1011.0
20260507060356 23 350 1.6 1.6 0.00 0.00 0.00 87 1011.0
20260507054456 22 356 1.6 1.6 0.00 0.00 0.00 88 1011.0
20260507054355 22 356 1.6 1.6 0.00 0.00 0.00 88 1011.0
20260507052455 23 356 1.6 1.6 0.00 0.00 0.00 88 1011.0
20260507052355 23 356 1.6 1.6 0.00 0.00 0.00 88 1011.0
20260507050455 23 356 1.6 1.6 0.00 0.00 0.00 88 1011.0
20260507050354 23 356 1.6 1.6 0.00 0.00 0.00 88 1011.0
20260507044454 24 356 1.6 1.6 0.00 0.00 0.00 88 1011.0
20260507044354 24 356 1.6 1.6 0.00 0.00 0.00 88 1011.0
20260507042453 25 356 1.6 1.6 0.00 0.00 0.00 88 1011.0
20260507042353 25 356 1.6 1.6 0.00 0.00 0.00 88 1011.0
20260507040453 23 40 4.8 0.0 0.00 0.00 0.00 89 1011.0
20260507040352 23 40 4.8 0.0 0.00 0.00 0.00 89 1011.0
20260507034452 23 40 4.8 0.0 0.00 0.00 0.00 89 1011.0
20260507034352 23 40 4.8 0.0 0.00 0.00 0.00 89 1011.0
20260507032451 24 40 4.8 0.0 0.00 0.00 0.00 89 1011.0
20260507032351 24 40 4.8 0.0 0.00 0.00 0.00 89 1011.0
20260507030451 25 0 3.2 0.0 0.00 0.00 0.00 89 1011.0
20260507030351 25 0 3.2 0.0 0.00 0.00 0.00 89 1011.0
20260507024450 25 0 3.2 0.0 0.00 0.00 0.00 89 1011.0
20260507024350 25 0 3.2 0.0 0.00 0.00 0.00 89 1011.0
20260507022450 26 0 3.2 0.0 0.00 0.00 0.00 89 1010.0
20260507022350 26 0 3.2 0.0 0.00 0.00 0.00 89 1010.0
20260507020449 26 0 3.2 0.0 0.00 0.00 0.00 89 1010.0
20260507020349 26 0 3.2 0.0 0.00 0.00 0.00 89 1010.0
20260507014449 23 240 12.9 0.0 0.00 0.00 0.00 74 1010.0
20260507014349 23 240 12.9 0.0 0.00 0.00 0.00 74 1010.0
20260507012448 24 240 12.9 0.0 0.00 0.00 0.00 74 1009.0
20260507012347 24 240 12.9 0.0 0.00 0.00 0.00 74 1009.0
20260507010447 25 240 12.9 0.0 0.00 0.00 0.00 74 1009.0
20260507010347 25 240 12.9 0.0 0.00 0.00 0.00 74 1009.0
20260507004447 25 240 12.9 0.0 0.00 0.00 0.00 74 1009.0
20260507004347 25 240 12.9 0.0 0.00 0.00 0.00 74 1009.0
20260507002446 26 240 12.9 0.0 0.03 0.00 0.00 74 1009.0
20260507002346 26 240 12.9 0.0 0.03 0.00 0.00 74 1009.0
20260507000446 26 240 12.9 0.0 0.03 0.00 0.00 74 1009.0
20260507000346 26 240 12.9 0.0 0.03 0.00 0.00 74 1009.0
20260506234445 27 240 12.9 0.0 0.00 0.00 0.00 74 1009.0
20260506234345 27 240 12.9 0.0 0.00 0.00 0.00 74 1009.0
20260506232445 27 240 14.5 0.0 0.00 0.00 0.00 74 1008.0
20260506232344 27 240 14.5 0.0 0.00 0.00 0.00 74 1008.0
20260506230444 28 220 12.9 0.0 0.00 0.00 0.00 74 1008.0
20260506230344 28 220 12.9 0.0 0.00 0.00 0.00 74 1008.0
20260506224444 28 220 9.7 0.0 0.00 0.00 0.00 74 1008.0
20260506224344 28 220 9.7 0.0 0.00 0.00 0.00 74 1008.0
20260506222443 29 220 9.7 0.0 0.03 0.00 0.00 74 1008.0
20260506222343 29 220 9.7 0.0 0.03 0.00 0.00 74 1008.0
20260506220443 30 210 8.0 0.0 0.00 0.00 0.00 74 1008.0
20260506220342 30 210 8.0 0.0 0.00 0.00 0.00 74 1008.0
20260506214442 30 210 8.0 0.0 0.03 0.00 0.00 74 1008.0
20260506214342 30 210 8.0 0.0 0.03 0.00 0.00 74 1008.0
20260506212442 27 190 12.9 0.0 0.03 0.00 0.00 70 1008.0
20260506212341 27 190 12.9 0.0 0.03 0.00 0.00 70 1008.0
20260506210441 27 190 12.9 0.0 0.00 0.00 0.00 70 1008.0
20260506210341 27 190 12.9 0.0 0.00 0.00 0.00 70 1008.0
20260506204441 28 190 12.9 0.0 0.03 0.00 0.00 70 1008.0
20260506204340 28 190 12.9 0.0 0.03 0.00 0.00 70 1008.0
20260506202440 28 190 12.9 0.0 0.00 0.00 0.00 70 1009.0
20260506202340 28 190 12.9 0.0 0.00 0.00 0.00 70 1009.0
20260506200439 29 190 14.5 0.0 0.03 0.00 0.00 70 1009.0
20260506200339 29 190 14.5 0.0 0.03 0.00 0.00 70 1009.0
20260506194439 30 190 9.7 0.0 0.00 0.00 0.00 70 1009.0
20260506194338 30 190 9.7 0.0 0.00 0.00 0.00 70 1009.0
20260506192438 30 190 9.7 0.0 0.03 0.00 0.00 70 1010.0
20260506192338 30 190 9.7 0.0 0.03 0.00 0.00 70 1010.0
20260506190438 31 220 6.4 0.0 0.00 0.00 0.00 70 1010.0
20260506190338 31 220 6.4 0.0 0.00 0.00 0.00 70 1010.0
20260506184437 31 220 6.4 0.0 0.03 0.00 0.00 70 1009.0
20260506184337 31 220 6.4 0.0 0.03 0.00 0.00 70 1009.0
20260506182436 28 220 6.4 0.0 0.00 0.00 0.00 74 1010.0
20260506182336 28 220 6.4 0.0 0.00 0.00 0.00 74 1010.0
20260506180436 28 210 6.4 0.0 0.00 0.00 0.00 74 1010.0
20260506180336 28 210 6.4 0.0 0.00 0.00 0.00 74 1010.0
20260506174435 29 210 6.4 0.0 0.00 0.00 0.00 74 1010.0
20260506174335 29 210 6.4 0.0 0.00 0.00 0.00 74 1010.0
20260506172435 30 210 6.4 0.0 0.00 0.00 0.00 74 1011.0
20260506172335 30 210 6.4 0.0 0.00 0.00 0.00 74 1011.0
20260506170435 30 170 6.4 0.0 0.00 0.00 0.00 74 1011.0
20260506170335 30 170 6.4 0.0 0.00 0.00 0.00 74 1011.0
20260506164434 27 170 6.4 0.0 0.00 0.00 0.00 79 1011.0
20260506164334 27 170 6.4 0.0 0.00 0.00 0.00 79 1011.0
20260506162433 28 170 6.4 0.0 0.00 0.00 0.00 79 1011.0
20260506162333 28 170 6.4 0.0 0.00 0.00 0.00 79 1011.0
20260506160433 28 0 3.2 0.0 0.00 0.00 0.00 79 1011.0
20260506154432 29 0 3.2 0.0 0.00 0.00 0.00 79 1011.0
20260506154332 29 0 3.2 0.0 0.00 0.00 0.00 79 1011.0
20260506152432 26 0 3.2 0.0 0.00 0.00 0.00 79 1011.0
20260506152331 26 0 3.2 0.0 0.00 0.00 0.00 79 1011.0
20260506150431 27 0 3.2 0.0 0.00 0.00 0.00 79 1011.0
20260506150331 27 0 3.2 0.0 0.00 0.00 0.00 79 1011.0
20260506144330 27 0 3.2 0.0 0.00 0.00 0.00 79 1011.0